This is the latest recevied weather packets stored in our database for station/object KJ6APE. If no packets are shown the sender has not sent any weather packets the latest 1 day(s).
| Time | Temp. | Humidity | Pressure | Rain* | Wind** | Luminosity | Snow |
|---|---|---|---|---|---|---|---|
| 1777993955 | 12.78° C | 87% | 1015.3 hPa | 0 mm | 0 m/s | 58 W/m² | - |
| 1777993652 | 12.78° C | 87% | 1015 hPa | 0 mm | 0.45 m/s, 107° | 50 W/m² | - |
| 1777993350 | 12.78° C | 87% | 1015.1 hPa | 0 mm | 0.45 m/s, 93° | 45 W/m² | - |
| 1777993050 | 12.78° C | 87% | 1015.1 hPa | 0 mm | 0 m/s | 37 W/m² | - |
| 1777992748 | 12.78° C | 87% | 1015.2 hPa | 0 mm | 0 m/s | 25 W/m² | - |
| 1777992445 | 12.78° C | 88% | 1015.1 hPa | 0 mm | 0 m/s | 32 W/m² | - |
| 1777992144 | 12.78° C | 88% | 1015 hPa | 0 mm | 0 m/s | 39 W/m² | - |
| 1777991840 | 12.22° C | 88% | 1014.9 hPa | 0 mm | 0 m/s | 37 W/m² | - |
| 1777991538 | 12.22° C | 88% | 1015 hPa | 0 mm | 0.45 m/s, 109° | 45 W/m² | - |
| 1777991235 | 12.22° C | 89% | 1014.9 hPa | 0 mm | 0 m/s | 46 W/m² | - |
| 1777990932 | 12.22° C | 89% | 1014.8 hPa | 0 mm | 0 m/s | 41 W/m² | - |
| 1777990630 | 12.22° C | 89% | 1014.9 hPa | 0 mm | 0 m/s | 35 W/m² | - |
| 1777990326 | 12.22° C | 89% | 1014.7 hPa | 0 mm | 0 m/s | 23 W/m² | - |
| 1777990022 | 11.67° C | 89% | 1014.9 hPa | 0 mm | 0 m/s | 20 W/m² | - |
| 1777989720 | 11.67° C | 89% | 1014.8 hPa | 0 mm | 0 m/s | 16 W/m² | - |
| 1777989416 | 11.67° C | 89% | 1014.8 hPa | 0 mm | 0 m/s | 15 W/m² | - |
| 1777989112 | 11.67° C | 89% | 1014.8 hPa | 0 mm | 0 m/s | 13 W/m² | - |
| 1777988808 | 11.67° C | 89% | 1014.8 hPa | 0 mm | 0.45 m/s, 96° | 12 W/m² | - |
| 1777988506 | 11.67° C | 89% | 1014.9 hPa | 0 mm | 0 m/s | 9 W/m² | - |
| 1777988203 | 11.67° C | 90% | 1014.7 hPa | 0 mm | 0 m/s | 5 W/m² | - |
| 1777987899 | 11.67° C | 89% | 1014.7 hPa | 0 mm | 0 m/s | 4 W/m² | - |
| 1777987595 | 11.67° C | 90% | 1014.7 hPa | 0 mm | 0 m/s | 3 W/m² | - |
| 1777987293 | 11.67° C | 90% | 1014.8 hPa | 0 mm | 0 m/s | 2 W/m² | - |
| 1777986989 | 11.67° C | 90% | 1014.6 hPa | 0 mm | 0 m/s | 2 W/m² | - |
| 1777986687 | 11.67° C | 89% | 1014.7 hPa | 0 mm | 0 m/s | 1 W/m² | - |
* Rain latest hour (hover to see other rain measurements)
** Current wind speed in m/s (hover to see current wind gust speed)